User: anonymous   Login
Location: Caltech
(34.1382°N, 118.1253°W)
Time: 13:53:37
(UTC-07:00)
Language:

Cosmos 2219 Rocket - Orbit

View from above orbital plane
View from above orbital plane
View from above satellite
View from above satellite

Ground track
Ground track

The orbit data is extracted from the following two-line orbital elements,

1 22220U 92076B   17178.63037017 -.00000040 +00000-0 +37957-5 0  9994
2 22220 071.0007 037.2686 0015045 259.1156 132.2819 14.16418328272253
Epoch (UTC): 27 June 2017 15:07:43
Eccentricity: 0.0015045
inclination: 71.0007°
perigee height: 826 km
apogee height: 848 km
right ascension of ascending node: 37.2686°
argument of perigee: 259.1156°
revolutions per day: 14.16418328
mean anomaly at epoch: 132.2819°
orbit number at epoch: 27225

The dashed part of the orbit path shows where the satellite is in the earth's shadow,  

DLR